Knoxville, TN

1:12 PM EST on November 13, 2019 (GMT -0500)
McGhee Tyson

Weather History for KTYS - October, 2019

Change the Weather History Date:

Monday, October 21, 2019

  Actual Average Record
Temperature  
Mean Temperature 63 °F 58 °F  
Max Temperature 73 °F 70 °F 86 °F (1947)
Min Temperature 52 °F 47 °F 29 °F (1987)
Degree Days  
Heating Degree Days 2 8  
Month to date heating degree days 70 104  
Since 1 July heating degree days 70 127  
Cooling Degree Days 0 1  
Month to date cooling degree days 103 32  
Year to date cooling degree days 1965 1519  
Growing Degree Days 13 (Base 50)    
Moisture  
Dew Point 56 °F    
Average Humidity 87    
Maximum Humidity 100    
Minimum Humidity 51    
Precipitation  
Precipitation 0.11 in 0.08 in 0.86 in (1929)
Month to date precipitation 1.08 1.64  
Year to date precipitation 49.34 38.48  
Snow  
Snow 0.00 in 0.00 in - ()
Month to date snowfall 0.0 0.0  
Since 1 July snowfall 0.0 0.0  
Since 1 September snowfall 0.0 0.0  
Snow Depth 0.00 in    
Sea Level Pressure  
Sea Level Pressure 29.93 in    
Wind  
Wind Speed 4 mph ()    
Max Wind Speed 17 mph    
Max Gust Speed 22 mph    
Visibility 5.2 miles    
Events Fog , Rain    
T = Trace of Precipitation, MM = Missing Value Source: Averaged Metar Reports

Daily Weather History Graph

Daily Weather History Graph

Search for Another Location

Airport or City:

Astronomy

Oct. 21, 2019 Rise Set
Actual Time 7:47 AM EDT 6:52 PM EDT
Civil Twilight 7:21 AM EDT 7:18 PM EDT
Nautical Twilight 6:51 AM EDT 7:48 PM EDT
Astronomical Twilight 6:22 AM EDT 8:18 PM EDT
Moon 12:09 AM EDT (10/21) 2:58 PM EDT (10/21)
Length of Visible Light 11h 57m
Length of Day
11h 05m
Waning Gibbous, 48% of the Moon is Illuminated
Oct 21
Waning Gibbous
Oct 27
New
Nov 4
First Quarter
Nov 12
Full
Nov 19
Last Quarter

Hourly Weather History & Observations

Time (EDT) Temp. Dew Point Humidity Pressure Visibility Wind Dir Wind Speed Gust Speed Precip Events Conditions
12:53 AM 57.0 °F 55.9 °F 96% 29.97 in 10.0 mi North 4.6 mph - N/A   Clear
1:53 AM 55.0 °F 54.0 °F 96% 29.96 in 10.0 mi NE 3.5 mph - N/A   Clear
2:34 AM 54.0 °F 54.0 °F 100% 29.97 in 10.0 mi Calm Calm - N/A   Scattered Clouds
2:53 AM 54.0 °F 54.0 °F 100% 29.95 in 4.0 mi NE 3.5 mph - N/A   Partly Cloudy
3:02 AM 54.0 °F 53.1 °F 97% 29.96 in 0.5 mi ENE 3.5 mph - N/A Fog Fog
3:10 AM 54.0 °F 53.1 °F 97% 29.96 in 0.5 mi ENE 3.5 mph - N/A Fog Fog
3:53 AM 54.0 °F 53.1 °F 97% 29.94 in 0.5 mi Calm Calm - N/A Fog Fog
4:00 AM 54.0 °F 53.1 °F 97% 29.95 in 0.8 mi NNW 3.5 mph - N/A   Mist
4:53 AM 54.0 °F 53.1 °F 97% 29.92 in 2.0 mi NE 3.5 mph - N/A   Partly Cloudy
5:38 AM 55.9 °F 55.0 °F 97% 29.93 in 0.5 mi NE 5.8 mph - N/A Fog Fog
5:53 AM 54.0 °F 54.0 °F 100% 29.92 in 0.5 mi ENE 3.5 mph - N/A Fog Fog
6:23 AM 57.0 °F 55.9 °F 96% 29.94 in 0.2 mi NE 6.9 mph - N/A Fog Fog
6:53 AM 55.9 °F 55.9 °F 100% 29.94 in 0.2 mi NE 6.9 mph - N/A Fog Fog
7:53 AM 55.9 °F 55.9 °F 100% 29.94 in 0.1 mi Calm Calm - N/A Fog Fog
8:53 AM 57.0 °F 57.0 °F 100% 29.95 in 0.1 mi North 3.5 mph - N/A Fog Fog
9:41 AM 57.9 °F 57.0 °F 97% 29.99 in 0.5 mi NW 3.5 mph - N/A Fog Fog
9:53 AM 57.9 °F 57.0 °F 97% 29.96 in 0.8 mi Calm Calm - N/A   Overcast
10:25 AM 59.0 °F 57.9 °F 96% 29.97 in 1.0 mi ENE 3.5 mph - N/A   Overcast
10:46 AM 60.1 °F 57.9 °F 93% 29.96 in 2.0 mi NE 3.5 mph - N/A   Overcast
10:53 AM 60.1 °F 57.9 °F 93% 29.94 in 2.0 mi NE 5.8 mph - N/A   Overcast
11:12 AM 61.0 °F 57.9 °F 90% 29.95 in 2.0 mi East 8.1 mph - N/A   Mostly Cloudy
11:20 AM 61.0 °F 57.9 °F 90% 29.94 in 5.0 mi ENE 8.1 mph - N/A   Mostly Cloudy
11:53 AM 63.0 °F 57.9 °F 84% 29.92 in 7.0 mi North 5.8 mph - N/A   Overcast
12:25 PM 66.0 °F 57.9 °F 75% 29.94 in 10.0 mi Variable 5.8 mph - N/A   Mostly Cloudy
12:53 PM 66.0 °F 57.9 °F 75% 29.93 in 10.0 mi Variable 4.6 mph - N/A   Mostly Cloudy
1:53 PM 68.0 °F 57.9 °F 70% 29.90 in 10.0 mi Calm Calm - N/A   Mostly Cloudy
2:53 PM 71.1 °F 60.1 °F 68% 29.89 in 10.0 mi Calm Calm - N/A   Overcast
3:53 PM 73.0 °F 59.0 °F 61% 29.88 in 10.0 mi SSW 6.9 mph - N/A   Overcast
4:53 PM 73.0 °F 55.0 °F 53% 29.89 in 10.0 mi SW 16.1 mph - 0.00 in Rain Light Rain
5:53 PM 73.0 °F 54.0 °F 51% 29.88 in 10.0 mi SSW 12.7 mph - 0.00 in   Overcast
6:53 PM 72.0 °F 55.0 °F 55% 29.86 in 10.0 mi South 9.2 mph - N/A   Overcast
7:53 PM 71.1 °F 55.9 °F 59% 29.88 in 10.0 mi South 9.2 mph - 0.00 in Rain Light Rain
8:53 PM 66.9 °F 59.0 °F 76% 29.89 in 8.0 mi WNW 3.5 mph - 0.01 in Rain Light Rain
9:53 PM 64.0 °F 60.1 °F 87% 29.88 in 10.0 mi Calm Calm - 0.02 in Rain Light Rain
10:53 PM 63.0 °F 61.0 °F 93% 29.87 in 10.0 mi East 3.5 mph - 0.08 in Rain Light Rain
11:53 PM 63.0 °F 61.0 °F 93% 29.85 in 10.0 mi NNW 3.5 mph - 0.00 in   Mostly Cloudy